sat.trackr.live / text

‹ back to catalog

2024-205H

NORAD 61901 · 2024-205H

PAYLOAD ACTIVE UNKNOWN

§ Identity

Operator
Country
PRC
Launch date
2024-11-11
Launch site
JSC
Launch vehicle
Mass (kg)
RCS (m²)

External: N2YO · Heavens-Above · Gunter

§ Orbital elements

Epoch: 2026-09-22T22:31:57.744192Z

Period
93.88 min
Inclination
97.4042°
Eccentricity
0.0010305
Mean motion
15.33865004 rev/d
Perigee alt
457.2 km
Apogee alt
471.3 km
Semi-major
6,842.4 km
B*
2.8850e-4
RAAN
344.0859°
Arg perigee
55.8524°
Mean anomaly
304.3695°
Rev number
10,369

§ Raw data

2024-205H1 61901U 24205H   26265.93886278  .00009387  00000+0  28850-3 0  99942 61901  97.4042 344.0859 0010305  55.8524 304.3695 15.33865004103690

JSON: /api/v1/satellites/61901 · /tle

For live sub-satellite position, see the globe view (requires WebGL).

§ Visibility from observer

Set your observer location to see the next 7 days of passes ≥ 10°. The values pass through the URL so the page stays shareable.

No JS? Fill the form by hand. The geolocation button needs JavaScript.